User: anonymous   Login
Location: Table Mountain
(47.2500°N, 120.5778°W)
Time: 06:53:32
(UTC-07:00)
Language:

POLYITAN 1 - Orbit

View from above orbital plane
View from above orbital plane
View from above satellite
View from above satellite

Ground track
Ground track

The orbit data is extracted from the following two-line orbital elements,

1 40042U 14033AJ  18291.83191292 +.00000341 +00000-0 +42663-4 0  9990
2 40042 097.9086 207.1324 0015783 124.1464 236.1252 14.88483220234590
Epoch (UTC): 18 October 2018 19:57:57
Eccentricity: 0.0015783
inclination: 97.9086°
perigee height: 591 km
apogee height: 613 km
right ascension of ascending node: 207.1324°
argument of perigee: 124.1464°
revolutions per day: 14.88483220
mean anomaly at epoch: 236.1252°
orbit number at epoch: 23459

The dashed part of the orbit path shows where the satellite is in the earth's shadow,  

DLR